Alice, TX

9:58 PM CDT on July 25, 2017 (GMT -0500)
Alice International

Weather History for KALI - November, 2012

Change the Weather History Date:

Friday, November 30, 2012

  Actual Average Record
Temperature  
Mean Temperature 72 °F -  
Max Temperature 82 °F 70 °F 82 °F (2012)
Min Temperature 63 °F 51 °F 37 °F (2001)
Cooling Degree Days 8    
Growing Degree Days 22 (Base 50)    
Moisture  
Dew Point 64 °F    
Average Humidity 74    
Maximum Humidity 93    
Minimum Humidity 54    
Precipitation  
Precipitation 0.00 in - - ()
Sea Level Pressure  
Sea Level Pressure 30.10 in    
Wind  
Wind Speed 5 mph (SSE)    
Max Wind Speed 14 mph    
Max Gust Speed -    
Visibility 10 miles    
Events      
Averages and records for this station are not official NWS values.
T = Trace of Precipitation, MM = Missing Value Source: NWS Daily Summary

Daily Weather History Graph

Daily Weather History Graph

Search for Another Location

Airport or City:

Trip Planner

Search our weather history database for the weather conditions in past years. The results will help you decide how hot, cold, wet, or windy it might be!

Date:

Astronomy

Nov. 30, 2012 Rise Set
Actual Time 7:05 AM CST 5:36 PM CST
Civil Twilight 6:39 AM CST 6:01 PM CST
Nautical Twilight 6:11 AM CST 6:30 PM CST
Astronomical Twilight 5:42 AM CST 6:59 PM CST
Moon 7:31 PM CST (11/30) 8:38 AM CST (11/30)
Length of Visible Light 11h 22m
Length of Day
10h 31m
Waning Gibbous, 96% of the Moon is Illuminated
Nov 30
Waning Gibbous
Dec 6
Last Quarter
Dec 13
New
Dec 19
First Quarter
Dec 28
Full

Hourly Weather History & Observations

Time (CST) Temp. Heat Index Dew Point Humidity Pressure Visibility Wind Dir Wind Speed Gust Speed Precip Events Conditions
12:53 AM 66.0 °F - 59.0 °F 78% 30.13 in 10.0 mi NNE 4.6 mph - N/A   Overcast
1:53 AM 66.0 °F - 60.1 °F 81% 30.12 in 10.0 mi NE 4.6 mph - N/A   Overcast
2:53 AM 66.0 °F - 61.0 °F 84% 30.12 in 10.0 mi NNE 3.5 mph - N/A   Overcast
3:53 AM 64.0 °F - 60.1 °F 87% 30.11 in 10.0 mi NE 3.5 mph - N/A   Partly Cloudy
4:53 AM 64.0 °F - 59.0 °F 84% 30.10 in 10.0 mi NE 3.5 mph - N/A   Overcast
5:53 AM 64.0 °F - 59.0 °F 84% 30.11 in 10.0 mi NNE 3.5 mph - N/A   Mostly Cloudy
6:53 AM 63.0 °F - 59.0 °F 87% 30.12 in 10.0 mi Calm Calm - N/A   Mostly Cloudy
7:53 AM 64.9 °F - 61.0 °F 87% 30.13 in 10.0 mi Calm Calm - N/A   Mostly Cloudy
8:14 AM 66.2 °F - 62.6 °F 88% 30.14 in 10.0 mi Calm Calm - N/A   Overcast
8:53 AM 70.0 °F - 63.0 °F 78% 30.14 in 10.0 mi Calm Calm - N/A   Mostly Cloudy
9:53 AM 77.0 °F - 66.0 °F 69% 30.15 in 10.0 mi SSE 8.1 mph - N/A   Scattered Clouds
10:36 AM 78.8 °F - 66.2 °F 65% 30.15 in 10.0 mi South 8.1 mph - N/A   Mostly Cloudy
10:50 AM 78.8 °F - 64.4 °F 61% 30.15 in 10.0 mi South 6.9 mph - N/A   Mostly Cloudy
10:53 AM 78.1 °F - 64.9 °F 64% 30.14 in 10.0 mi South 9.2 mph - N/A   Mostly Cloudy
11:32 AM 78.8 °F - 64.4 °F 61% 30.14 in 10.0 mi SW 9.2 mph - N/A   Overcast
11:39 AM 80.6 °F 82.7 °F 66.2 °F 61% 30.13 in 10.0 mi SW 6.9 mph - N/A   Overcast
11:53 AM 80.1 °F 81.9 °F 64.9 °F 60% 30.12 in 10.0 mi SW 6.9 mph - N/A   Mostly Cloudy
12:53 PM 81.0 °F 82.7 °F 64.9 °F 58% 30.09 in 10.0 mi Variable 5.8 mph - N/A   Overcast
1:53 PM 81.0 °F 82.5 °F 64.0 °F 56% 30.06 in 10.0 mi SW 8.1 mph - N/A   Overcast
2:53 PM 82.0 °F 83.4 °F 64.0 °F 54% 30.04 in 10.0 mi Variable 3.5 mph - N/A   Mostly Cloudy
3:53 PM 81.0 °F 82.5 °F 64.0 °F 56% 30.04 in 10.0 mi SSE 4.6 mph - N/A   Scattered Clouds
4:53 PM 79.0 °F - 66.0 °F 64% 30.04 in 10.0 mi SE 13.8 mph - N/A   Partly Cloudy
5:53 PM 75.0 °F - 66.0 °F 73% 30.05 in 10.0 mi SE 8.1 mph - N/A   Clear
6:53 PM 73.0 °F - 66.9 °F 81% 30.06 in 10.0 mi SSE 10.4 mph - N/A   Clear
7:53 PM 72.0 °F - 66.9 °F 84% 30.07 in 10.0 mi SE 8.1 mph - N/A   Clear
9:53 PM 70.0 °F - 66.9 °F 90% 30.08 in 10.0 mi SSE 5.8 mph - N/A   Scattered Clouds
10:53 PM 70.0 °F - 66.9 °F 90% 30.09 in 10.0 mi SSE 5.8 mph - N/A   Mostly Cloudy
11:53 PM 68.0 °F - 66.0 °F 93% 30.08 in 9.0 mi SSE 4.6 mph - N/A   Clear